Temperature
19 19 19 19 19 19 19 19 19 19 19 19 19 19 19 19 18 18 18 18 18 18 18 18 18 18 18 18 18 18 18 18 18 17 17 17 17 17 17 17 17 17 17
19 19 19 19 19 19 19 19 19 19 19 18 18 18 18 18 18 18 18 18 18 18 18 18 18 18 18 18 18 17 17 17 18 18 17 17 17 17 17 17 17 17 17
20 19 19 19 19 19 19 19 19 19 19 18 18 18 18 18 18 18 18 18 18 18 18 18 18 18 18 18 18 17 17 17 17 17 17 17 17 17 17 17 17 17 17
20 20 19 19 19 19 19 19 19 19 19 18 18 18 18 18 18 18 18 18 18 18 18 18 18 18 18 18 17 17 17 17 17 17 17 17 17 17 17 17 17 17 17
20 20 19 19 19 19 19 19 19 19 19 18 18 18 18 18 18 18 18 18 18 18 18 18 18 18 18 17 17 17 17 17 17 17 17 17 17 17 17 17 17 17 17
20 20 20 19 19 19 19 19 19 19 19 19 19 18 18 18 18 18 18 18 18 18 18 18 18 18 18 17 17 17 17 17 17 17 17 17 17 17 17 17 17 17 17
20 20 20 20 19 19 19 19 19 19 19 19 19 18 18 18 18 18 18 18 18 18 18 18 18 18 17 17 17 17 17 17 17 17 17 17 18 18 17 17 17 17 17
21 20 20 20 19 19 19 19 19 19 19 19 19 18 18 18 18 18 18 18 18 18 18 18 18 18 18 17 17 17 17 17 17 17 18 18 18 18 18 17 17 17 17
20 20 20 20 19 19 19 19 19 19 19 19 18 18 18 18 18 18 18 18 18 18 18 18 18 18 18 17 17 17 17 17 17 18 18 18 18 18 18 18 17 17 17
20 20 20 20 20 19 19 19 19 19 19 19 18 18 18 18 18 18 18 18 18 18 18 18 18 18 18 18 17 17 17 17 18 18 18 18 18 18 18 18 17 17 17
20 20 20 20 19 19 19 19 19 19 18 18 18 18 18 18 18 18 18 18 18 18 18 18 18 18 18 18 18 18 18 18 18 18 18 18 18 18 18 18 17 17 17
20 20 20 20 19 19 19 19 19 19 18 18 18 18 18 18 18 18 18 18 18 18 18 18 18 18 18 18 18 18 18 18 18 18 18 18 18 18 18 18 18 17 17
20 20 20 20 19 19 19 19 19 19 18 18 18 18 18 18 18 18 18 18 18 18 18 18 18 18 18 18 18 18 18 18 18 18 18 18 18 18 18 18 17 17 17
20 20 20 20 19 19 19 19 19 19 19 18 18 18 18 18 18 18 18 18 18 18 18 18 18 18 18 18 18 18 18 18 18 18 18 18 18 18 18 18 18 17 17
20 20 20 20 19 19 19 19 19 19 19 18 18 18 18 18 18 18 18 18 18 18 18 18 18 18 18 18 18 18 18 18 18 18 18 18 18 18 18 18 18 18 17
21 20 20 20 20 19 19 19 19 19 19 18 18 18 18 18 18 18 18 18 18 18 18 18 18 18 18 18 18 18 18 18 18 18 18 18 18 18 17 17 17 17 17
21 21 20 20 20 19 19 19 19 19 19 19 18 18 18 18 18 18 18 18 18 18 18 18 18 18 18 18 18 18 18 18 18 18 18 18 18 17 17 17 17 17 17
21 21 20 20 20 20 19 19 19 19 19 19 19 18 18 18 18 18 18 18 18 18 18 18 18 18 18 18 18 18 18 18 18 18 18 18 17 17 17 17 17 17 17
21 21 20 20 20 20 19 19 19 19 19 19 19 18 18 18 18 18 18 18 18 18 18 18 18 18 18 18 18 18 18 18 18 18 18 17 17 17 17 17 17 17 17
21 21 21 20 20 20 20 19 19 19 19 19 19 19 18 18 18 18 18 18 18 18 18 18 18 18 18 18 18 18 18 18 18 18 18 17 17 17 17 17 17 17 17
21 21 21 21 20 20 20 19 19 19 19 19 19 19 18 18 18 18 18 18 18 18 18 18 18 18 18 18 18 18 18 18 18 18 18 18 17 17 17 17 17 17 17
22 21 21 21 20 20 20 19 19 19 19 19 19 19 19 18 18 18 18 18 18 18 18 18 18 18 18 18 18 17 17 17 17 17 17 17 17 17 17 17 17 17 17
22 22 21 21 20 20 20 19 19 19 19 19 19 19 19 18 18 18 18 18 18 18 18 18 18 18 18 18 18 17 17 17 17 17 17 17 17 17 17 17 16 17 17
22 22 21 21 21 20 20 20 19 19 19 19 19 19 18 18 18 18 18 18 18 18 18 18 18 18 18 18 18 17 17 17 17 16 16 16 16 16 16 16 16 16 16
22 22 21 21 21 20 20 20 19 19 19 19 19 18 18 18 18 18 18 18 18 18 18 18 18 18 18 17 17 17 17 17 17 17 16 16 16 16 16 16 16 16 16
22 21 21 21 20 20 20 20 19 19 19 19 19 18 18 18 18 18 18 18 18 18 18 18 18 17 17 17 17 17 17 17 17 17 16 16 15 15 15 15 15 15 15
Wind_Speed
2 6 12 13 14 15 15 16 16 17 18 18 19 19 19 20 20 21 20 20 20 20 20 20 20 21 21 21 22 22 22 22 22 21 20 20 19 19 19 19 18 17 18
6 9 13 14 15 15 15 16 16 17 17 18 18 19 19 19 19 20 19 19 20 20 20 19 19 20 20 20 20 21 21 21 20 20 19 18 18 18 18 17 17 16 17
8 10 13 14 15 15 15 16 16 17 17 17 18 18 18 18 19 18 18 19 19 19 19 19 18 18 18 18 18 19 19 19 19 19 18 15 16 17 17 17 17 17 16
10 11 13 14 15 15 15 15 15 16 16 16 17 17 18 18 18 17 18 18 18 17 17 17 17 16 16 16 16 16 17 17 17 17 14 13 14 16 17 17 17 16 16
10 12 14 15 15 15 15 15 15 15 16 16 16 16 17 17 17 17 17 17 16 16 16 15 15 15 14 14 14 13 13 13 15 14 13 13 14 16 17 16 16 16 15
9 12 14 15 15 15 15 15 15 15 15 15 15 16 16 16 16 16 16 16 15 15 14 14 13 13 12 12 11 11 10 11 13 13 13 14 14 16 16 16 15 15 15
8 11 14 15 15 15 14 14 14 14 14 15 15 15 15 15 15 15 15 15 14 13 12 12 12 11 10 10 10 9 9 10 12 12 13 13 14 16 15 15 15 14 14
11 11 13 15 14 14 14 14 14 13 14 14 14 14 14 14 14 13 13 13 13 12 11 10 10 9 9 8 8 8 8 10 11 12 13 13 15 15 15 15 14 14 13
11 10 10 12 13 13 13 13 13 13 13 13 13 13 13 12 12 12 12 12 11 11 9 9 8 7 7 6 6 6 7 10 11 12 13 12 15 15 15 14 14 13 13
9 8 9 10 11 11 12 13 13 12 12 12 11 11 11 11 10 10 10 10 10 9 8 7 6 5 5 4 4 4 6 9 10 11 11 13 15 15 15 14 13 13 12
9 7 7 8 9 10 10 11 11 11 10 10 9 9 8 7 7 7 8 8 8 8 7 6 4 3 2 2 2 3 5 7 9 10 11 14 16 15 14 13 13 12 12
10 9 7 7 8 9 9 10 9 8 9 8 8 7 7 6 6 6 7 6 6 6 5 5 4 2 2 1 1 1 4 7 9 10 12 15 16 15 14 13 13 12 12
10 9 8 8 9 8 6 8 7 6 7 7 8 7 7 6 5 5 4 4 4 4 4 4 4 3 3 4 3 2 4 7 8 10 13 16 16 15 14 14 13 12 11
9 9 8 8 7 8 8 7 7 6 5 5 7 8 8 5 4 4 4 5 5 4 5 5 4 5 5 6 5 4 5 7 8 9 13 16 16 15 14 14 13 13 12
9 8 8 8 7 7 6 5 6 6 6 7 7 9 10 6 3 4 4 4 5 6 5 4 4 4 3 3 3 5 6 8 9 10 11 14 15 15 14 14 13 13 13
9 8 7 7 6 7 5 3 4 6 8 8 7 8 10 8 6 4 3 3 4 5 6 5 4 2 2 1 1 4 6 7 9 10 10 12 14 14 14 14 14 13 13
10 9 8 7 6 6 5 4 4 6 7 6 6 7 8 8 7 5 3 2 3 4 4 3 2 2 1 1 1 1 3 5 8 9 10 11 12 14 14 14 14 13 13
10 9 8 7 6 5 4 3 3 5 5 5 6 6 6 7 7 5 2 2 3 2 2 2 2 2 1 1 1 1 2 3 5 8 9 10 11 11 12 14 13 13 14
10 9 7 6 6 5 4 3 3 4 4 5 5 5 6 6 6 5 3 3 3 1 1 1 2 2 2 1 1 1 1 2 3 5 6 8 9 10 11 12 14 14 14
9 8 7 6 6 5 3 2 2 2 1 2 3 5 5 5 5 4 2 2 2 1 0 0 1 1 2 2 1 1 1 2 1 2 4 5 7 8 9 9 10 12 14
9 8 7 7 5 4 3 2 2 1 1 1 2 4 5 5 4 4 2 1 1 1 1 1 1 1 1 2 1 1 2 2 0 1 2 3 4 6 6 7 8 8 9
10 9 8 7 6 5 4 3 3 2 2 2 1 2 4 4 4 3 3 2 1 1 1 0 1 1 1 2 3 1 1 3 3 1 0 1 2 2 2 5 6 7 7
9 9 9 8 7 6 5 3 2 2 1 1 0 1 1 3 3 3 3 2 1 2 1 2 2 3 2 2 2 3 3 2 1 2 2 1 1 1 1 1 1 3 6
9 8 8 8 7 6 6 4 4 3 3 3 2 1 0 1 2 2 2 2 1 1 1 1 1 2 2 2 1 2 3 4 3 1 2 2 2 2 1 2 2 2 2
10 8 7 7 7 6 6 6 5 3 2 1 2 2 1 1 1 2 2 2 1 1 0 1 0 0 1 2 2 1 1 1 2 3 2 1 2 2 1 2 3 3 3
8 7 6 7 6 6 6 6 6 5 4 3 2 2 1 1 1 2 2 2 1 1 1 1 1 1 0 1 1 1 2 2 2 2 3 2 0 1 2 1 2 3 3
Wind_Direction
115 115 104 99 93 94 92 91 89 88 90 92 93 93 93 94 95 95 96 97 98 100 101 101 103 103 104 105 107 110 113 114 115 115 117 119 120 120 117 116 113 113 116
142 122 110 104 100 97 95 93 92 90 90 92 94 94 95 95 95 96 97 98 99 101 102 103 104 104 104 106 108 111 114 115 115 115 115 117 120 120 119 118 116 119 119
130 120 112 108 105 101 97 95 94 93 92 93 95 95 96 96 97 98 100 100 100 100 102 103 104 105 106 107 110 113 115 116 116 114 112 109 115 119 119 120 121 121 121
128 122 117 112 108 105 102 99 97 96 95 95 96 97 98 99 99 100 102 102 102 103 103 104 105 106 108 110 110 113 116 119 119 117 113 114 117 120 120 122 123 123 123
123 122 122 117 113 110 106 103 102 101 100 99 99 100 100 101 102 103 104 104 105 106 106 106 107 108 108 108 108 111 115 117 123 120 118 117 120 124 124 125 125 125 125
122 125 125 120 117 114 111 108 107 105 105 104 104 103 105 105 106 108 108 109 109 109 108 108 109 109 109 107 107 108 111 119 120 120 121 123 127 130 129 129 128 128 129
129 130 129 125 122 118 115 113 111 110 109 109 108 107 108 110 111 111 111 113 114 114 113 111 110 108 106 105 107 106 105 121 127 130 131 132 134 133 132 132 131 132 133
137 135 133 130 127 124 121 119 116 115 114 113 113 111 112 113 113 114 115 117 118 118 117 115 114 110 104 100 103 106 108 123 128 137 138 138 139 138 137 136 136 137 138
138 137 135 136 133 130 128 127 126 124 121 120 119 118 118 118 118 118 119 120 122 123 122 120 118 113 104 98 103 112 116 126 129 139 144 145 146 145 145 144 144 143 143
142 144 143 141 140 138 136 135 136 133 130 128 127 126 126 125 126 127 128 130 130 131 130 129 126 121 112 103 99 118 120 124 134 144 150 155 155 153 151 151 151 151 151
150 154 153 151 152 150 148 146 144 141 140 138 139 139 134 132 136 141 144 144 143 143 145 145 142 138 135 122 108 129 128 135 145 150 160 164 163 160 158 158 157 159 160
165 169 167 164 165 164 158 152 156 152 152 155 158 158 155 154 164 162 162 160 161 163 168 177 182 194 237 267 280 145 146 147 148 156 168 170 169 167 165 165 166 166 167
165 165 169 170 172 174 160 162 173 171 172 180 182 180 173 172 181 180 176 182 184 188 203 214 224 242 244 251 262 219 172 166 163 168 174 175 175 174 173 174 174 175 176
151 153 160 163 164 168 162 169 177 181 178 184 188 180 170 168 180 184 191 203 207 213 221 232 235 246 252 247 232 208 176 169 169 172 176 179 181 181 181 181 181 183 186
145 150 155 152 150 150 150 167 171 181 178 180 176 174 168 165 172 186 201 210 213 214 213 221 224 230 234 225 190 167 163 170 170 175 182 183 184 185 187 188 188 190 192
146 150 149 144 142 137 138 151 161 172 176 175 172 173 172 170 173 178 188 198 214 218 210 209 211 203 205 188 149 155 162 170 177 180 184 187 190 191 193 194 196 197 198
150 148 148 147 140 138 141 145 150 167 167 169 176 173 170 170 170 167 169 194 216 217 212 207 206 174 163 144 130 146 160 173 177 184 186 188 194 200 202 202 203 204 204
149 149 157 152 145 146 142 137 133 151 158 168 171 168 169 176 172 162 171 217 229 205 188 176 167 145 151 146 158 213 184 180 185 187 187 190 194 201 208 210 209 210 210
154 153 156 148 153 153 147 138 131 136 143 160 164 174 179 178 181 171 180 216 215 175 178 182 153 155 163 181 213 232 221 211 201 188 185 193 198 202 206 213 216 216 215
155 153 153 153 157 149 135 115 92 91 115 149 164 178 179 178 184 176 180 202 178 152 189 149 150 153 167 178 190 316 285 247 201 191 192 188 194 200 202 211 220 224 223
153 154 155 153 161 146 134 132 132 160 188 203 198 188 183 181 176 165 164 175 168 170 212 202 153 137 167 149 104 8 354 347 150 206 182 170 186 201 198 206 215 221 226
165 165 163 162 164 163 163 166 168 165 187 197 209 181 183 182 181 168 165 183 180 184 242 220 163 163 216 168 149 122 356 358 6 343 291 179 190 185 188 204 206 215 217
174 175 173 168 165 168 166 147 122 93 54 49 78 181 195 183 183 178 165 172 182 170 206 232 204 183 213 239 175 162 169 217 309 356 20 57 101 94 84 110 152 211 215
182 179 171 168 167 170 165 158 161 168 179 205 188 178 169 159 160 159 138 138 139 150 202 252 216 190 180 221 241 209 191 176 178 243 0 22 49 66 78 93 89 79 134
177 175 174 169 169 169 167 169 170 174 184 173 135 129 97 35 73 108 116 108 96 94 316 308 350 177 191 195 202 205 196 185 178 184 232 306 22 29 58 83 86 91 101
170 170 170 172 176 172 170 172 172 173 165 146 139 141 131 50 32 58 88 86 79 58 19 2 18 24 269 194 198 184 177 174 184 169 191 197 221 334 20 39 69 89 100
Height
1539 1538 1537 1536 1535 1534 1533 1533 1532 1532 1531 1531 1532 1532 1532 1532 1533 1533 1534 1534 1535 1535 1536 1537 1538 1538 1538 1539 1539 1540 1542 1545 1547 1549 1551 1552 1554 1555 1556 1558 1559 1560 1561
1539 1539 1539 1538 1537 1536 1536 1535 1535 1535 1534 1534 1535 1535 1535 1536 1536 1536 1537 1538 1538 1539 1540 1540 1541 1542 1542 1543 1544 1545 1547 1548 1550 1552 1554 1555 1556 1557 1558 1559 1560 1561 1562
1540 1540 1540 1540 1539 1539 1538 1538 1538 1538 1538 1538 1538 1538 1538 1539 1539 1540 1540 1541 1542 1542 1543 1544 1544 1545 1546 1547 1548 1549 1550 1552 1554 1555 1556 1557 1559 1560 1560 1561 1562 1563 1564
1542 1542 1542 1542 1542 1541 1541 1540 1540 1540 1540 1540 1541 1541 1541 1542 1542 1543 1543 1544 1545 1545 1546 1547 1548 1548 1549 1550 1551 1552 1553 1555 1556 1557 1558 1560 1561 1561 1562 1563 1564 1565 1566
1543 1544 1544 1544 1543 1543 1543 1543 1543 1543 1543 1543 1543 1544 1544 1544 1545 1545 1546 1547 1547 1548 1549 1550 1551 1551 1552 1554 1554 1555 1556 1557 1559 1560 1561 1562 1562 1563 1564 1565 1566 1567 1567
1545 1545 1545 1545 1545 1545 1545 1545 1545 1545 1546 1546 1546 1547 1547 1547 1548 1548 1549 1550 1550 1551 1552 1553 1553 1554 1555 1556 1557 1558 1559 1560 1561 1562 1563 1564 1564 1565 1566 1567 1567 1568 1569
1546 1547 1547 1547 1547 1547 1547 1548 1548 1548 1548 1548 1549 1549 1550 1550 1551 1551 1551 1552 1553 1554 1554 1555 1556 1557 1558 1559 1560 1561 1561 1562 1563 1564 1565 1565 1566 1567 1567 1568 1569 1570 1570
1548 1548 1549 1549 1549 1549 1549 1550 1550 1550 1551 1551 1551 1552 1552 1553 1553 1554 1554 1555 1555 1556 1557 1558 1559 1560 1561 1562 1563 1563 1564 1564 1565 1566 1566 1567 1568 1568 1569 1569 1570 1571 1572
1550 1550 1551 1551 1551 1551 1552 1552 1552 1552 1553 1553 1554 1554 1555 1555 1556 1556 1557 1557 1558 1558 1559 1560 1561 1562 1563 1564 1565 1566 1566 1566 1567 1567 1568 1569 1569 1570 1570 1571 1571 1572 1573
1552 1552 1553 1553 1553 1553 1554 1554 1554 1554 1555 1555 1556 1556 1557 1557 1558 1559 1559 1560 1560 1561 1562 1562 1563 1564 1565 1566 1567 1567 1568 1568 1569 1569 1570 1570 1570 1571 1571 1572 1572 1573 1574
1553 1554 1554 1555 1555 1555 1555 1556 1556 1556 1557 1557 1558 1558 1559 1559 1560 1561 1562 1562 1563 1563 1564 1565 1565 1566 1567 1568 1568 1569 1569 1570 1570 1570 1570 1571 1571 1572 1572 1572 1573 1574 1574
1553 1555 1556 1556 1556 1557 1557 1557 1558 1558 1558 1559 1559 1560 1561 1561 1562 1562 1563 1564 1565 1565 1566 1566 1567 1568 1569 1569 1570 1570 1570 1570 1571 1571 1571 1572 1572 1572 1572 1573 1573 1574 1574
1554 1555 1556 1557 1558 1558 1558 1559 1559 1559 1559 1560 1560 1561 1562 1562 1563 1563 1564 1565 1566 1567 1567 1568 1568 1569 1569 1570 1570 1570 1571 1571 1571 1572 1572 1572 1572 1572 1573 1573 1574 1574 1574
1554 1556 1557 1558 1558 1559 1559 1560 1560 1560 1560 1561 1561 1562 1562 1563 1564 1565 1566 1566 1567 1567 1568 1568 1569 1569 1570 1570 1570 1570 1570 1571 1571 1572 1572 1572 1572 1572 1573 1573 1573 1574 1574
1555 1556 1557 1558 1559 1559 1560 1560 1561 1561 1561 1562 1562 1562 1563 1564 1565 1566 1566 1567 1568 1568 1568 1569 1569 1569 1569 1570 1570 1570 1570 1570 1571 1571 1571 1572 1572 1572 1572 1573 1573 1573 1574
1555 1557 1558 1559 1560 1560 1561 1561 1561 1562 1562 1562 1563 1563 1564 1565 1565 1566 1567 1567 1567 1568 1568 1569 1569 1569 1569 1569 1569 1569 1569 1570 1570 1571 1571 1571 1571 1572 1572 1572 1572 1572 1573
1556 1557 1558 1559 1560 1561 1561 1562 1562 1562 1563 1563 1564 1564 1565 1565 1566 1566 1567 1567 1567 1567 1568 1568 1568 1569 1569 1568 1568 1569 1568 1569 1569 1570 1570 1570 1570 1571 1571 1571 1571 1571 1571
1556 1557 1558 1559 1560 1561 1562 1562 1562 1563 1563 1564 1564 1564 1565 1565 1566 1566 1567 1567 1567 1567 1567 1567 1567 1567 1567 1567 1567 1568 1568 1568 1568 1568 1568 1569 1569 1569 1569 1569 1570 1570 1570
1555 1557 1558 1559 1560 1561 1562 1562 1563 1563 1564 1564 1564 1564 1565 1565 1565 1566 1566 1566 1566 1566 1566 1566 1566 1566 1566 1566 1566 1566 1566 1566 1566 1566 1566 1567 1567 1567 1567 1567 1568 1568 1568
1555 1556 1557 1558 1559 1560 1561 1562 1563 1563 1564 1564 1564 1564 1564 1565 1565 1565 1565 1565 1565 1565 1564 1565 1565 1565 1564 1564 1564 1565 1565 1565 1565 1565 1565 1565 1565 1565 1565 1565 1565 1566 1566
1553 1555 1556 1557 1558 1559 1560 1561 1562 1562 1563 1563 1563 1564 1564 1564 1564 1564 1564 1564 1564 1563 1563 1563 1563 1563 1563 1563 1563 1563 1563 1563 1563 1563 1563 1563 1563 1563 1563 1563 1563 1563 1563
1551 1553 1555 1556 1557 1558 1560 1560 1561 1562 1562 1563 1563 1563 1563 1563 1563 1563 1563 1562 1562 1562 1561 1561 1561 1561 1561 1561 1561 1561 1561 1562 1562 1562 1562 1561 1561 1561 1561 1561 1560 1561 1561
1550 1551 1553 1554 1556 1557 1558 1559 1560 1561 1561 1561 1561 1562 1562 1562 1562 1562 1561 1561 1561 1560 1560 1559 1559 1559 1559 1559 1559 1560 1560 1559 1560 1560 1560 1560 1560 1560 1559 1559 1558 1558 1558
1548 1550 1552 1553 1554 1556 1557 1558 1559 1559 1559 1560 1560 1561 1561 1561 1560 1560 1560 1559 1559 1558 1558 1557 1557 1556 1556 1556 1556 1557 1558 1557 1558 1558 1558 1558 1558 1558 1558 1557 1556 1555 1555
1547 1549 1550 1552 1553 1554 1555 1556 1557 1558 1558 1559 1559 1559 1559 1559 1559 1558 1558 1557 1557 1556 1555 1555 1554 1553 1553 1553 1553 1553 1554 1554 1555 1555 1555 1556 1556 1556 1556 1555 1555 1554 1553
1545 1548 1549 1551 1552 1553 1554 1555 1556 1556 1557 1557 1557 1558 1557 1557 1557 1556 1556 1555 1555 1554 1553 1552 1552 1551 1551 1550 1550 1551 1551 1551 1551 1552 1552 1552 1553 1553 1553 1553 1553 1552 1552